FW9813 Weather Reports


Display with metric or nautical units.
time (UTC)temp
F
wind
direction
speed
MPH
gust
MPH
rain 1hr
in
rain 24hr
in
rain mn
in
humidity
%
barometer
mb
20260904200047 81 311 1.0 6.0 0.00 0.00 0.00 69 1013.3
20260904194558 80 346 2.0 8.0 0.00 0.00 0.00 68 1013.4
20260904193055 79 336 2.0 6.0 0.00 0.00 0.00 70 1013.4
20260904191546 78 347 2.0 8.0 0.00 0.00 0.00 75 1013.4
20260904190048 77 306 2.0 5.0 0.00 0.00 0.00 76 1013.5
20260904184548 77 337 1.0 5.0 0.00 0.00 0.00 76 1013.6
20260904183048 77 331 1.0 4.0 0.00 0.00 0.00 77 1013.6
20260904181548 76 351 1.0 7.0 0.00 0.00 0.00 78 1013.6
20260904180051 75 328 1.0 8.0 0.00 0.00 0.00 80 1013.6
20260904174550 74 348 1.0 9.0 0.00 0.00 0.00 80 1013.6
20260904173045 74 344 2.0 6.0 0.00 0.00 0.00 81 1013.6
20260904171842 75 213 1.0 6.0 0.00 0.00 0.00 83 1013.5
20260904164553 75 352 1.0 3.0 0.00 0.00 0.00 87 1013.3
20260904163046 74 352 1.0 3.0 0.00 0.00 0.00 88 1013.0
20260904161545 73 360 1.0 4.0 0.00 0.00 0.00 89 1013.0
20260904160053 72 0 0.0 3.0 0.00 0.00 0.00 91 1012.7
20260904154552 71 171 0.0 4.0 0.00 0.00 0.00 92 1012.7
20260904153048 71 348 1.0 4.0 0.00 0.00 0.00 92 1012.6
20260904151544 71 169 0.0 3.0 0.00 0.00 0.00 92 1012.4
20260904150051 70 228 0.0 2.0 0.00 0.00 0.00 92 1012.4
20260904144547 70 208 1.0 4.0 0.00 0.00 0.00 92 1012.2
20260904143044 70 0 0.0 3.0 0.00 0.00 0.00 91 1012.1
20260904141543 69 238 0.0 3.0 0.00 0.00 0.00 91 1011.9
20260904140104 69 0 0.0 1.0 0.00 0.00 0.00 90 1011.7
20260904134554 69 0 0.0 2.0 0.00 0.00 0.00 91 1011.4
20260904133053 68 0 0.0 1.0 0.00 0.00 0.00 90 1011.5
20260904131548 68 0 0.0 2.0 0.00 0.00 0.00 91 1011.5
20260904130055 68 0 0.0 3.0 0.00 0.00 0.00 91 1011.4
20260904124558 67 0 0.0 4.0 0.00 0.00 0.00 91 1011.4
20260904123046 67 55 0.0 2.0 0.00 0.00 0.00 91 1011.4
20260904121547 67 342 1.0 3.0 0.00 0.00 0.00 90 1011.2
20260904120056 67 0 0.0 4.0 0.00 0.00 0.00 90 1011.0
20260904114549 67 0 0.0 3.0 0.00 0.00 0.00 90 1010.8
20260904113051 67 0 0.0 3.0 0.00 0.00 0.00 90 1010.8
20260904111550 68 28 1.0 4.0 0.00 0.00 0.00 89 1010.6
20260904110046 68 345 1.0 5.0 0.00 0.00 0.00 89 1010.4
20260904104552 68 338 2.0 6.0 0.00 0.00 0.00 89 1010.3
20260904103048 68 336 1.0 4.0 0.00 0.00 0.00 89 1010.4
20260904101549 69 360 2.0 8.0 0.00 0.00 0.00 90 1010.3
20260904100108 69 352 1.0 5.0 0.00 0.00 0.00 90 1010.4
20260904094550 71 333 2.0 6.0 0.00 0.00 0.00 90 1010.4
20260904093054 72 59 1.0 5.0 0.00 0.00 0.00 91 1009.9
20260904091554 72 5 1.0 3.0 0.00 0.00 0.00 91 1010.1
20260904090048 72 334 1.0 4.0 0.00 0.00 0.00 91 1010.1
20260904084603 72 331 1.0 4.0 0.00 0.00 0.00 91 1010.3
20260904083056 72 46 2.0 6.0 0.00 0.00 0.00 92 1009.9
20260904081549 72 0 0.0 0.0 0.00 0.00 0.00 90 1009.5
20260904080049 72 0 0.0 0.0 0.00 0.00 0.00 90 1009.3
20260904074550 72 0 0.0 0.0 0.00 0.00 0.00 89 1009.3
20260904073057 72 0 0.0 0.0 0.00 0.00 0.00 89 1009.4
20260904071549 73 0 0.0 0.0 0.00 0.00 0.00 88 1009.4
20260904070045 73 0 0.0 0.0 0.00 0.00 0.00 88 1009.5
20260904064555 73 0 0.0 0.0 0.00 0.00 0.00 87 1009.5
20260904063101 74 0 0.0 0.0 0.00 0.00 0.00 87 1009.5
20260904061549 74 0 0.0 2.0 0.00 0.00 0.00 86 1009.6
20260904060047 74 0 0.0 2.0 0.00 0.00 0.00 85 1009.6
20260904054549 75 0 1.0 4.0 0.00 0.00 0.00 85 1009.6
20260904053056 75 0 0.0 3.0 0.00 0.00 0.00 84 1009.5
20260904051600 75 0 0.0 4.0 0.00 0.00 0.00 83 1009.4
20260904050044 75 0 0.0 3.0 0.00 0.00 0.00 82 1009.4
20260904044549 76 0 2.0 3.0 0.00 0.00 0.00 81 1009.3
20260904043049 76 0 0.0 3.0 0.00 0.00 0.00 80 1009.3
20260904041550 77 0 0.0 3.0 0.00 0.00 0.00 78 1009.2
20260904040052 78 0 0.0 4.0 0.00 0.00 0.00 77 1009.2
20260904034546 79 0 0.0 2.0 0.00 0.00 0.00 77 1009.1
20260904033055 79 0 0.0 2.0 0.00 0.00 0.00 76 1009.1
20260904031557 79 0 0.0 1.0 0.00 0.00 0.00 75 1009.2
20260904030049 80 0 0.0 2.0 0.00 0.00 0.00 74 1009.0
20260904024546 80 0 0.0 2.0 0.00 0.00 0.00 74 1008.9
20260904023055 80 0 0.0 1.0 0.00 0.00 0.00 73 1008.9
20260904021548 81 0 0.0 2.0 0.00 0.00 0.00 72 1008.7
20260904020049 81 0 0.0 2.0 0.00 0.00 0.00 71 1008.7
20260904014601 81 48 0.0 2.0 0.00 0.00 0.00 71 1008.6
20260904013047 81 0 0.0 1.0 0.00 0.00 0.00 70 1008.6
20260904011549 82 0 0.0 1.0 0.00 0.00 0.00 69 1008.5
20260904010052 82 0 0.0 2.0 0.00 0.00 0.00 68 1008.3
20260904004554 83 25 0.0 2.0 0.00 0.00 0.00 67 1008.3
20260904003048 84 0 0.0 3.0 0.00 0.00 0.00 65 1008.3
20260904001547 84 0 0.0 2.0 0.00 0.00 0.00 65 1008.4
20260904000054 84 0 0.0 2.0 0.00 0.00 0.00 64 1008.4
20260903234549 85 133 0.0 3.0 0.00 0.00 0.00 63 1008.5
20260903233049 85 0 0.0 2.0 0.00 0.00 0.00 63 1008.3
20260903231550 85 76 0.0 3.0 0.00 0.00 0.00 62 1008.1
20260903230047 85 36 0.0 4.0 0.00 0.00 0.00 61 1007.9
20260903224555 85 347 1.0 4.0 0.00 0.00 0.00 61 1007.7
20260903223052 85 29 1.0 6.0 0.00 0.00 0.00 61 1007.9
20260903221547 85 161 1.0 5.0 0.00 0.00 0.00 62 1008.0
20260903220052 85 124 1.0 7.0 0.00 0.00 0.00 62 1008.1
20260903214555 85 29 0.0 2.0 0.00 0.00 0.00 66 1008.2
20260903213052 85 31 1.0 3.0 0.00 0.00 0.00 66 1008.2
20260903211547 85 5 1.0 4.0 0.00 0.00 0.00 65 1008.0
20260903210104 85 36 1.0 4.0 0.00 0.00 0.00 63 1008.1
20260903204616 85 53 1.0 4.0 0.00 0.00 0.00 64 1008.0
20260903203051 85 5 1.0 7.0 0.00 0.00 0.00 62 1008.3
20260903201547 86 15 1.0 4.0 0.00 0.00 0.00 61 1008.3